星链-37469(STARLINK-37469)

导读

STARLINK-37469(NORAD编号69168)是美国SpaceX公司星链(Starlink)互联网卫星星座中的一颗卫星,属于低轨通信卫星。星链项目旨在构建全球覆盖的太空互联网系统,计划部署数万颗近地轨道卫星,为全球提供低成本、高速的互联网接入服务。该卫星运行于近地轨道,承担星链网络的通信传输任务,和其他星链卫星共同组网,推动实现全球无缝网络覆盖,助力偏远地区、海洋等场景的互联网连接,是星链大规模星座部署中的组成单元。

Basic Information
目录编号:
69168
目录名称:
STARLINK-37469
国际标识:
2026-111W
轨道中心:
EARTH
卫星名称:
星链-37469
卫星全名:
星链-37469(STARLINK-37469)
卫星状态:
在轨 (已飞行114 天)
发射日期:
2026-05-21 UTC
国别 :
美国 (US)
星等 :
--
This satellite is enrolled in the Space Conjunction Data Service (SCDS) and the current flight risk assessment level is: High Risk
Orbit Information
数据来源 国际轨道数据
星历时间: 2026-09-12T03:02:03+0800
12小时前
查看轨道信息
半长轴: 6840.832km
偏心率: 0.0001196
轨道倾角: 53.158°
近地点辐角 107.707°
升交点赤经 106.333°
平近点角 252.406°
近地点: 461.876km
远地点: 463.514km
周期: 93.848分钟
每日圈数: 15.344028
Detailed Information
固有亮度:
5
最大亮度:
2.5
卫星平台:
Starlink V1.0
覆盖范围:
全球
运营商:
太空探索技术公司
运营商所在国:
美国
制造商(研发单位):
太空探索技术公司
制造商所在国:
美国
使用方式:
暂无
Satellite Introduction
Starlink 计划是 SpaceX 推出的全球卫星互联网项目,通过发射低轨道卫星,为全球尤其是偏远地区提供高速、低延迟的互联网服务。自 2019 年起,Starlink 已部署数千颗卫星,旨在缩小全球数字鸿沟,推动互联网普及。该项目还为军事、航空等行业提供通信支持,带来广泛经济效益。
2D Orbit Map
3D Orbit Map
Orbit Altitude Analysis Chart
Orbit Inclination Analysis Chart
Orbit Comprehensive Analysis Chart
View Comprehensive Chart
Conjunction Data List
Event ID Objects TCA Miss Dist (km) Collision Risk Probability Collision Risk Index (CRI) Action
CDM_260914-091505-888106-916821
2026-09-14T
09:15:59+0000
0.388 km
远距离
2.289715E-4 高风险 0.82
CDM_260913-230605-888106-916821
2026-09-13T
23:06:20+0000
1.186 km
极远距离
8.736956E-6 低风险 0.54
CDM_260914-200605-363306-916821
2026-09-14T
20:06:29+0000
0.943 km
远距离
4.349713E-6 低风险 0.48
CDM_260914-131806-689206-916821
2026-09-14T
13:18:32+0000
1.914 km
极远距离
2.682479E-6 低风险 0.44
CDM_260913-195901-815206-916821
2026-09-13T
19:59:33+0000
1.989 km
极远距离
2.594747E-6 低风险 0.43
CDM_260914-004005-888106-916821
2026-09-14T
00:40:08+0000
2.000 km
极远距离
1.77283E-6 低风险 0.4
CDM_260912-180504-302306-916821
2026-09-12T
18:05:42+0000
2.946 km
极远距离
1.202894E-6 低风险 0.37
CDM_260906-200005-406506-916821
2026-09-06T
20:00:58+0000
2.905 km
极远距离
1.123567E-6 低风险 0.36
CDM_260914-104905-888106-916821
2026-09-14T
10:49:47+0000
2.653 km
极远距离
1.018143E-6 低风险 0.35
CDM_260914-205305-363306-916821
2026-09-14T
20:53:23+0000
1.942 km
极远距离
5.375019E-7 极低风险 0.3
Miss Distance Evolution Trend with All Objects
Collision Probability Evolution Trend with All Objects